カタログに戻る

QIANFAN-111

運用中通信PO
NORAD 68638·PAYLOAD·🇨🇳 China

打ち上げ Apr 7, 2026 から Wenchang Space Launch Site

Loading…

次のパス (今後24時間)

TLE

最新Source: Space-Track

元期: Sep 14, 2026, 14:33 UTC

1 68638U 26075C   26257.60633736  .00000061  00000-0  76247-4 0  9994
2 68638  88.9873 311.8704 0002259  98.2093 261.9315 13.51020888 21881

AllMySatでQIANFAN-111をリアルタイム追跡

Download on the App Store